GW4318 Weather Reports


Display with metric or nautical units.
time (UTC)temp
F
wind
direction
speed
MPH
gust
MPH
rain 1hr
in
rain 24hr
in
rain mn
in
humidity
%
barometer
mb
20260505121519 60 147 2.0 6.0 0.00 0.00 0.00 73 1010.1
20260505120602 59 234 2.0 6.0 0.00 0.00 0.00 74 1010.1
20260505115602 58 279 3.0 7.0 0.00 0.00 0.00 75 1010.0
20260505114516 58 161 2.0 5.0 0.00 0.00 0.00 76 1009.9
20260505113519 57 241 3.0 7.0 0.00 0.00 0.00 78 1010.0
20260505112624 55 102 2.0 6.0 0.00 0.00 0.00 80 1009.8
20260505111520 54 122 2.0 7.0 0.00 0.00 0.00 82 1009.8
20260505110529 54 306 1.0 4.0 0.00 0.00 0.00 82 1009.9
20260505101529 52 50 1.0 2.0 0.00 0.00 0.00 84 1010.0
20260505100529 52 15 1.0 2.0 0.00 0.00 0.00 84 1009.9
20260505095530 52 64 1.0 2.0 0.00 0.00 0.00 83 1009.9
20260505094531 52 290 1.0 2.0 0.00 0.00 0.00 83 1010.0
20260505093530 52 27 0.0 2.0 0.00 0.00 0.00 83 1010.0
20260505092529 52 9 1.0 1.0 0.00 0.00 0.00 82 1010.0
20260505091530 52 292 1.0 2.0 0.00 0.00 0.00 81 1009.9
20260505090531 52 52 1.0 2.0 0.00 0.00 0.00 81 1009.9
20260505085550 52 55 1.0 4.0 0.00 0.00 0.00 81 1010.0
20260505084530 52 81 1.0 3.0 0.00 0.00 0.00 81 1010.2
20260505083531 52 89 1.0 2.0 0.00 0.00 0.00 80 1010.3
20260505082532 52 14 1.0 3.0 0.00 0.00 0.00 80 1010.3
20260505081521 52 300 1.0 3.0 0.00 0.00 0.00 78 1010.2
20260505080518 52 245 1.0 3.0 0.00 0.00 0.00 78 1010.2
20260505075517 53 58 1.0 3.0 0.00 0.00 0.00 78 1010.2
20260505074521 53 46 1.0 4.0 0.00 0.00 0.00 77 1010.4
20260505073520 53 235 1.0 2.0 0.00 0.00 0.00 77 1010.4
20260505072524 53 294 1.0 4.0 0.00 0.00 0.00 76 1010.4
20260505071539 53 342 1.0 4.0 0.00 0.00 0.00 76 1010.5
20260505070517 53 108 1.0 4.0 0.00 0.00 0.00 76 1010.5
20260505065517 53 355 1.0 3.0 0.00 0.00 0.00 75 1010.5
20260505064517 53 300 2.0 4.0 0.00 0.00 0.00 75 1010.5
20260505063538 53 282 1.0 3.0 0.00 0.00 0.00 75 1010.6
20260505062518 53 265 1.0 3.0 0.00 0.00 0.00 75 1010.6
20260505061518 53 143 1.0 3.0 0.00 0.00 0.00 74 1010.5
20260505060518 54 291 1.0 3.0 0.00 0.00 0.00 74 1010.5
20260505055521 53 312 1.0 4.0 0.00 0.00 0.00 74 1010.6
20260505054536 53 336 1.0 5.0 0.00 0.00 0.00 74 1010.7
20260505053518 53 88 1.0 3.0 0.00 0.00 0.00 74 1010.7
20260505052520 53 81 1.0 2.0 0.00 0.00 0.00 74 1010.8
20260505051517 54 60 1.0 2.0 0.00 0.00 0.00 73 1010.8
20260505050536 54 37 1.0 4.0 0.00 0.00 0.00 71 1010.8
20260505041521 55 286 2.0 6.0 0.00 0.00 0.00 68 1010.9
20260505040517 55 264 1.0 6.0 0.00 0.00 0.00 67 1010.8
20260505035517 56 95 1.0 3.0 0.00 0.00 0.00 67 1010.8
20260505034517 56 306 2.0 6.0 0.00 0.00 0.00 65 1010.7
20260505033516 56 271 2.0 5.0 0.00 0.00 0.00 65 1010.7
20260505032538 57 286 2.0 6.0 0.00 0.00 0.00 64 1010.6
20260505031517 57 254 2.0 6.0 0.00 0.00 0.00 63 1010.6
20260505030517 57 105 2.0 5.0 0.00 0.00 0.00 62 1010.6
20260505025559 57 262 1.0 4.0 0.00 0.00 0.00 62 1010.6
20260505024519 58 23 2.0 5.0 0.00 0.00 0.00 61 1010.6
20260505023519 58 26 1.0 4.0 0.00 0.00 0.00 60 1010.7
20260505022524 58 248 2.0 7.0 0.00 0.00 0.00 58 1010.7
20260505021518 59 235 2.0 6.0 0.00 0.00 0.00 58 1010.8
20260505020538 59 107 2.0 5.0 0.00 0.00 0.00 57 1010.7
20260505015521 60 174 1.0 5.0 0.00 0.00 0.00 56 1010.6
20260505014520 60 165 2.0 4.0 0.00 0.00 0.00 55 1010.5
20260505013518 60 256 2.0 5.0 0.00 0.00 0.00 54 1010.4
20260505012518 61 237 2.0 6.0 0.00 0.00 0.00 54 1010.2
20260505011519 61 208 2.0 5.0 0.00 0.00 0.00 53 1010.0
20260505010539 62 273 2.0 6.0 0.00 0.00 0.00 52 1009.9
20260505005516 62 238 2.0 6.0 0.00 0.00 0.00 52 1009.7
20260505004539 62 141 1.0 4.0 0.00 0.00 0.00 52 1009.5
20260505003519 63 192 2.0 4.0 0.00 0.00 0.00 50 1009.2
20260505002520 63 235 3.0 7.0 0.00 0.00 0.00 50 1009.0
20260505001536 64 228 3.0 8.0 0.00 0.00 0.00 50 1008.8
20260505000617 64 223 3.0 7.0 0.00 0.00 0.00 49 1008.6
20260504235520 65 237 3.0 7.0 0.00 0.00 0.00 48 1008.3
20260504234517 65 244 3.0 8.0 0.00 0.00 0.00 47 1008.1
20260504233517 66 228 3.0 9.0 0.00 0.00 0.00 46 1007.9
20260504232517 67 218 2.0 6.0 0.00 0.00 0.00 45 1007.7
20260504231520 68 157 4.0 10.0 0.00 0.00 0.00 43 1007.5
20260504230537 69 260 3.0 11.0 0.00 0.00 0.00 40 1007.4
20260504225517 70 268 3.0 8.0 0.00 0.00 0.00 38 1007.1
20260504224539 71 228 1.0 5.0 0.00 0.00 0.00 37 1006.9
20260504223518 71 274 3.0 7.0 0.00 0.00 0.00 36 1006.8
20260504222518 71 261 2.0 8.0 0.00 0.00 0.00 36 1006.7
20260504221518 71 253 2.0 5.0 0.00 0.00 0.00 37 1006.7
20260504220518 70 261 3.0 7.0 0.00 0.00 0.00 37 1006.9
20260504215518 71 244 3.0 8.0 0.00 0.00 0.00 36 1006.9
20260504214518 72 277 4.0 8.0 0.00 0.00 0.00 36 1006.9
20260504213539 71 288 4.0 9.0 0.00 0.00 0.00 36 1006.8
20260504212518 71 268 4.0 7.0 0.00 0.00 0.00 36 1006.9
20260504211517 71 286 4.0 9.0 0.00 0.00 0.00 36 1006.8
20260504210519 72 261 4.0 8.0 0.00 0.00 0.00 36 1006.8
20260504205520 71 267 4.0 11.0 0.00 0.00 0.00 36 1006.8
20260504204519 70 191 5.0 9.0 0.00 0.00 0.00 36 1006.8
20260504203516 70 279 4.0 7.0 0.00 0.00 0.00 37 1006.9
20260504202516 72 278 4.0 9.0 0.00 0.00 0.00 36 1006.9
20260504201519 72 287 4.0 9.0 0.00 0.00 0.00 35 1006.8
20260504200520 72 252 3.0 7.0 0.00 0.00 0.00 36 1007.0
20260504195516 72 215 3.0 8.0 0.00 0.00 0.00 34 1007.0
20260504194517 71 267 5.0 9.0 0.00 0.00 0.00 36 1007.0
20260504193519 72 276 4.0 9.0 0.00 0.00 0.00 35 1007.0
20260504192517 71 265 4.0 10.0 0.00 0.00 0.00 35 1007.0
20260504191517 71 195 4.0 9.0 0.00 0.00 0.00 34 1007.1
20260504190517 71 273 4.0 12.0 0.00 0.00 0.00 35 1007.2
20260504185517 71 267 3.0 9.0 0.00 0.00 0.00 36 1007.2
20260504184518 70 250 5.0 10.0 0.00 0.00 0.00 35 1007.5
20260504183518 71 286 5.0 12.0 0.00 0.00 0.00 36 1007.5
20260504182518 70 236 4.0 10.0 0.00 0.00 0.00 36 1007.5
20260504181518 70 249 3.0 9.0 0.00 0.00 0.00 36 1007.4
20260504180538 70 248 3.0 8.0 0.00 0.00 0.00 37 1007.6
20260504175518 69 272 4.0 12.0 0.00 0.00 0.00 37 1007.6
20260504174518 69 235 4.0 9.0 0.00 0.00 0.00 37 1007.8
20260504173520 68 270 5.0 11.0 0.00 0.00 0.00 37 1008.0
20260504172516 68 253 6.0 13.0 0.00 0.00 0.00 37 1008.0
20260504171519 68 260 4.0 10.0 0.00 0.00 0.00 39 1008.0
20260504170519 68 275 5.0 9.0 0.00 0.00 0.00 38 1008.1
20260504150520 65 287 5.0 10.0 0.00 0.00 0.00 41 1009.3
20260504140518 62 273 4.0 9.0 0.00 0.00 0.00 45 1009.6
20260504130519 56 271 3.0 8.0 0.00 0.00 0.00 50 1010.6